Wind_Speed
45 44 43 44 44 42 35 35 33 36 34 32 28 25 24 22 21 20 20 21 21 22 23 23 24 26 29 31 30 31 31 26 19 24 28 29 34 34 33 31 32 30 30 30 31
50 45 45 43 39 38 33 34 31 34 35 32 30 29 27 27 25 24 23 23 25 25 25 25 24 26 29 32 32 33 31 25 19 26 29 32 37 33 32 32 31 30 31 34 32
43 40 37 36 31 31 33 34 33 33 35 35 33 32 30 30 28 27 27 24 24 24 25 24 24 25 27 28 30 32 33 26 25 29 30 34 36 33 31 33 31 30 29 34 33
33 31 32 30 30 30 33 34 33 33 36 36 35 34 32 33 31 28 28 25 25 26 26 26 27 26 26 28 28 29 30 30 27 27 29 30 31 31 32 31 31 31 28 32 30
33 31 29 28 31 32 32 33 33 34 36 38 38 37 35 34 36 31 30 28 28 29 28 29 29 28 27 30 30 29 29 31 29 26 27 28 27 29 33 33 32 30 27 26 29
31 31 31 27 29 30 32 32 34 35 37 38 38 37 36 37 38 34 33 31 31 31 31 32 32 32 29 31 30 29 29 29 26 24 25 28 28 28 30 31 33 31 26 25 25
32 31 33 32 33 34 31 34 35 36 35 37 38 37 34 39 38 35 35 33 34 33 33 34 33 31 31 31 31 30 28 25 22 22 26 28 29 29 31 31 31 32 31 31 28
31 30 31 32 32 36 36 38 37 39 39 39 41 40 36 41 36 36 36 37 36 34 34 35 35 34 33 32 31 30 28 23 19 24 28 28 26 27 27 30 32 32 32 32 31
38 35 34 36 37 37 38 41 42 42 42 42 43 41 39 42 39 39 38 39 37 35 35 37 37 36 34 32 29 29 28 25 23 25 27 27 27 27 26 28 31 32 32 29 29
41 40 38 38 36 37 42 43 42 41 41 42 43 42 43 43 43 41 38 37 36 36 36 36 37 35 35 30 30 29 29 27 26 25 28 28 27 27 27 27 28 29 31 29 29
44 44 43 41 41 40 40 43 43 40 39 37 38 37 37 37 37 35 33 33 34 34 33 36 37 35 32 30 31 30 29 29 26 26 28 29 29 28 26 27 28 28 28 29 27
46 44 46 47 45 45 44 45 44 45 45 40 38 37 39 38 38 37 35 35 35 34 35 36 38 34 32 31 33 31 29 29 28 27 29 31 29 29 28 27 28 27 28 31 31
47 49 50 50 51 52 52 52 51 53 52 46 46 45 47 46 42 41 39 39 39 37 38 39 39 36 34 34 33 32 32 27 25 29 30 30 30 30 31 30 29 29 29 30 32
49 50 51 53 54 56 58 59 59 60 61 59 56 57 53 54 50 51 47 45 44 43 41 43 42 39 37 34 34 35 31 29 29 30 29 30 32 33 33 32 32 31 32 33 34
50 51 53 54 56 57 57 58 59 61 62 63 65 64 62 61 59 58 58 54 53 51 47 47 44 42 40 37 36 38 33 33 33 31 32 32 34 35 34 34 35 35 33 34 36
40 44 45 47 50 54 56 57 58 61 64 65 66 67 67 65 65 64 64 63 62 58 56 54 50 47 45 42 41 39 37 34 33 34 34 32 33 36 33 35 35 34 34 35 36
37 41 41 40 44 46 46 45 49 53 54 56 60 64 68 69 68 69 68 69 68 66 63 59 57 54 48 46 44 44 39 38 33 33 37 33 32 38 35 34 35 33 35 36 36
38 39 39 38 41 41 39 40 44 47 48 50 52 55 57 60 67 70 71 71 72 70 68 65 64 60 55 52 48 45 42 39 41 36 35 34 35 36 37 37 37 35 35 35 35
34 36 41 39 40 41 39 38 41 42 43 43 44 49 52 53 57 61 70 72 72 72 72 70 70 65 62 58 53 51 47 43 40 39 36 38 39 41 41 39 41 39 36 37 38
34 32 36 36 34 33 35 38 44 45 45 44 41 41 44 49 51 55 58 67 72 72 71 70 70 69 66 64 60 57 53 49 46 46 40 37 40 46 46 42 42 42 40 40 41
37 34 35 34 35 34 33 36 39 47 47 45 43 35 33 35 43 47 47 53 62 70 71 69 68 70 69 67 68 62 57 54 52 48 49 44 42 48 49 48 46 46 44 43 43
48 43 41 40 40 38 38 39 38 39 45 45 43 37 37 36 38 36 34 43 46 60 68 70 66 67 69 70 71 67 63 60 56 52 50 51 48 54 56 52 50 48 47 46 46
54 51 50 50 46 47 47 44 45 45 45 44 45 44 40 39 37 39 36 37 35 46 55 65 69 66 70 72 69 69 67 65 62 58 52 49 48 60 60 58 55 52 51 50 50
57 53 55 56 55 53 51 49 48 51 52 47 51 49 48 45 42 38 41 42 41 42 44 53 64 69 71 73 72 69 69 68 67 63 60 53 54 58 62 59 57 53 52 52 50
64 62 62 59 59 60 57 55 59 59 56 56 51 50 50 51 55 55 53 51 48 47 48 46 51 64 68 74 73 72 68 68 67 67 62 63 58 61 63 65 64 60 58 57 55
71 71 71 70 67 64 64 62 60 57 60 60 60 60 56 55 58 58 57 56 56 50 52 49 46 50 53 66 74 73 69 70 69 71 66 65 61 69 69 68 67 65 63 62 60
78 75 76 72 70 69 68 67 66 64 62 55 57 60 58 60 62 65 62 58 55 56 56 57 54 49 48 54 60 65 73 73 73 70 68 66 66 69 69 71 72 68 66 65 63
Wind_Direction
268 271 267 270 272 271 265 255 254 239 239 238 243 244 239 232 228 227 232 238 246 253 259 264 268 268 265 266 264 264 265 269 263 259 257 261 262 263 265 259 258 258 260 262 261
265 265 265 267 266 263 251 246 246 241 241 237 238 243 244 239 236 236 242 249 256 260 265 270 271 273 272 271 266 262 261 264 256 254 256 258 257 261 266 265 268 271 269 268 266
264 263 260 263 256 245 242 244 245 244 240 235 236 241 244 241 241 244 250 253 259 265 270 275 277 276 275 277 273 267 262 260 258 259 259 262 269 278 275 279 279 279 274 277 276
254 253 256 248 245 244 242 242 246 247 235 235 238 240 244 246 247 251 255 259 266 269 276 278 277 277 280 283 286 276 267 260 261 269 267 266 269 272 275 276 276 276 276 281 290
251 253 247 252 249 246 243 243 247 244 237 237 241 243 245 248 251 252 257 262 267 273 277 278 279 280 281 283 287 277 268 260 260 267 265 265 266 267 271 271 271 274 279 283 291
252 247 244 253 253 250 247 246 246 243 242 242 243 247 251 253 256 255 260 262 266 271 274 276 276 280 282 283 285 276 267 263 260 262 261 263 264 263 260 265 269 269 263 265 278
250 248 247 254 258 251 250 247 245 247 247 246 247 249 250 253 255 253 261 262 264 267 271 274 278 278 282 285 284 277 270 264 257 261 259 258 261 261 265 268 267 267 266 263 256
245 250 251 251 257 253 253 249 245 246 248 250 250 252 251 255 256 257 262 266 266 268 271 272 276 278 280 283 280 274 271 265 247 256 258 259 261 261 265 269 271 272 271 272 269
245 244 250 252 253 253 252 248 248 247 248 249 252 253 254 256 257 258 262 264 265 265 267 272 275 276 281 280 274 271 265 256 245 250 257 258 260 261 264 272 277 278 273 269 271
245 246 247 251 254 255 251 250 247 248 250 252 252 254 257 258 260 260 261 261 264 262 266 272 273 278 282 275 277 269 263 256 248 251 255 260 259 261 267 274 275 282 281 279 275
248 247 247 248 251 256 256 251 247 246 247 248 251 253 256 257 258 258 259 261 263 263 268 268 270 279 278 273 275 267 258 257 250 253 255 259 258 259 266 274 277 278 285 286 285
251 251 250 249 251 251 250 251 251 246 243 245 252 252 258 258 261 262 263 264 263 266 267 267 271 280 275 269 269 264 252 256 256 253 253 256 259 261 260 267 276 284 284 284 286
254 253 253 252 252 252 253 253 253 251 252 246 253 254 259 261 261 265 263 263 263 264 267 269 273 274 271 267 269 263 252 256 264 258 256 255 258 259 261 264 270 275 280 281 279
257 258 257 258 257 256 256 256 255 254 253 254 256 259 257 261 260 263 262 263 264 262 264 265 268 273 270 266 267 255 255 255 252 253 254 253 255 256 257 261 263 266 271 279 282
257 257 258 259 260 259 259 260 260 260 259 258 255 256 258 258 257 259 260 259 260 263 263 260 262 265 264 262 261 257 254 252 252 248 250 251 253 251 255 257 258 261 267 272 277
257 260 260 260 260 261 260 259 261 260 260 260 260 258 256 258 258 257 258 258 257 257 257 258 259 258 260 262 261 260 252 252 251 248 253 254 256 262 258 258 260 263 266 269 272
263 262 262 262 263 264 263 262 259 258 259 260 260 260 258 256 254 254 254 254 255 255 254 255 257 257 258 259 259 259 257 250 248 249 250 253 254 258 262 264 265 264 265 266 269
258 264 269 260 264 263 265 264 264 262 262 261 261 262 263 259 254 250 249 250 250 251 253 253 254 255 257 258 258 257 257 253 247 249 248 249 248 253 259 262 263 265 268 271 275
261 269 266 263 258 264 266 265 266 267 265 265 267 267 260 260 259 256 248 246 248 247 248 249 250 251 251 251 254 253 252 250 247 250 250 247 251 254 254 257 263 265 269 274 276
265 273 270 266 262 265 266 265 268 269 270 271 274 275 267 260 258 256 254 249 246 247 247 247 249 249 249 250 250 250 249 248 244 241 244 247 252 257 258 258 261 265 267 269 273
269 271 276 278 277 271 272 269 272 269 271 275 280 272 264 266 259 256 256 255 250 247 247 248 247 250 249 248 247 246 247 250 250 247 242 242 245 254 255 257 259 261 264 268 271
266 270 270 272 273 272 270 269 276 279 276 272 273 267 268 272 278 272 261 253 258 251 247 246 247 248 246 247 247 247 246 245 247 249 248 246 250 253 252 252 255 260 263 266 269
271 271 271 270 268 268 268 268 272 276 275 271 269 266 266 263 270 276 275 270 267 255 250 247 245 245 248 247 247 248 247 246 245 245 246 250 251 255 259 258 258 258 259 262 265
264 264 268 268 269 269 270 269 271 273 273 273 269 272 266 262 270 272 272 271 272 265 257 248 245 245 247 250 247 246 247 246 246 246 243 244 246 254 260 262 261 262 265 265 267
264 262 263 266 264 266 266 268 267 266 269 272 271 268 265 264 269 271 275 275 274 267 264 258 249 246 245 248 250 249 247 248 247 246 245 245 244 249 253 258 260 261 263 267 270
263 263 263 266 268 265 265 267 268 269 267 268 270 267 265 265 267 268 272 273 278 275 264 262 265 257 246 247 247 249 250 248 247 246 243 243 246 248 250 253 257 259 262 265 268
265 262 263 263 264 264 263 265 270 268 272 268 267 266 267 270 268 269 270 270 270 275 277 264 260 259 257 255 246 247 249 249 248 248 247 246 245 249 251 253 256 258 260 263 266
Height
10896 10897 10898 10900 10901 10901 10903 10904 10906 10909 10911 10913 10917 10919 10921 10924 10925 10927 10928 10930 10931 10932 10933 10934 10934 10935 10934 10933 10934 10934 10936 10940 10944 10941 10939 10938 10935 10935 10935 10938 10939 10941 10942 10941 10941
10888 10889 10890 10892 10893 10893 10895 10897 10900 10903 10905 10908 10911 10914 10917 10919 10921 10923 10925 10926 10928 10928 10929 10929 10930 10930 10929 10927 10928 10928 10930 10935 10938 10933 10932 10931 10926 10930 10930 10932 10936 10939 10938 10935 10935
10879 10881 10882 10884 10885 10887 10889 10891 10894 10897 10899 10902 10905 10908 10911 10914 10916 10918 10920 10922 10923 10924 10924 10924 10925 10924 10922 10922 10922 10923 10925 10929 10929 10928 10929 10927 10926 10927 10926 10927 10930 10932 10932 10929 10928
10872 10874 10875 10877 10879 10880 10882 10885 10888 10890 10893 10895 10899 10902 10906 10909 10910 10913 10915 10917 10919 10919 10919 10919 10918 10918 10918 10916 10917 10918 10920 10922 10923 10924 10923 10923 10923 10922 10920 10920 10922 10922 10926 10923 10922
10865 10867 10870 10871 10873 10874 10876 10879 10882 10884 10887 10890 10893 10896 10900 10904 10902 10908 10910 10912 10913 10913 10913 10912 10912 10913 10913 10912 10912 10913 10914 10916 10917 10917 10917 10916 10917 10918 10913 10913 10914 10916 10918 10920 10919
10858 10861 10863 10865 10867 10868 10870 10873 10876 10878 10881 10884 10887 10890 10895 10897 10896 10902 10904 10906 10907 10906 10905 10905 10906 10907 10908 10906 10906 10907 10909 10910 10912 10911 10911 10909 10910 10911 10907 10907 10906 10909 10912 10915 10916
10851 10853 10856 10858 10859 10861 10864 10867 10870 10872 10874 10877 10880 10883 10888 10887 10890 10895 10895 10898 10898 10900 10899 10898 10900 10902 10902 10901 10900 10900 10902 10905 10907 10905 10903 10902 10904 10904 10903 10902 10901 10901 10904 10907 10911
10844 10847 10849 10851 10852 10855 10858 10860 10861 10864 10866 10869 10872 10875 10881 10879 10884 10886 10888 10890 10891 10893 10892 10891 10894 10895 10896 10896 10896 10895 10897 10899 10901 10899 10896 10899 10899 10900 10898 10895 10894 10896 10899 10899 10902
10836 10839 10842 10844 10845 10848 10850 10852 10854 10856 10858 10861 10864 10868 10872 10872 10876 10878 10881 10882 10884 10885 10883 10884 10886 10887 10889 10889 10890 10890 10891 10891 10893 10893 10892 10894 10895 10894 10894 10892 10890 10891 10893 10892 10893
10828 10831 10833 10836 10838 10840 10843 10844 10845 10847 10850 10852 10856 10860 10862 10865 10867 10870 10872 10873 10875 10875 10876 10876 10877 10880 10882 10883 10883 10883 10884 10886 10888 10889 10888 10889 10890 10889 10889 10889 10888 10888 10888 10888 10888
10819 10822 10825 10828 10830 10832 10835 10836 10837 10839 10841 10844 10847 10851 10853 10855 10858 10861 10864 10865 10866 10868 10869 10868 10869 10873 10875 10877 10877 10876 10878 10879 10884 10885 10884 10885 10886 10885 10884 10882 10881 10882 10884 10883 10881
10808 10811 10814 10817 10819 10823 10826 10827 10829 10829 10832 10837 10839 10844 10843 10846 10851 10853 10857 10857 10858 10860 10861 10861 10861 10867 10868 10869 10869 10870 10873 10875 10878 10879 10879 10878 10881 10881 10880 10879 10878 10877 10878 10878 10876
10797 10800 10803 10805 10808 10812 10813 10815 10818 10818 10820 10829 10829 10833 10833 10836 10842 10844 10847 10847 10849 10852 10852 10852 10854 10858 10859 10860 10862 10864 10867 10871 10874 10873 10874 10875 10875 10875 10875 10875 10875 10873 10871 10871 10872
10785 10788 10790 10791 10796 10798 10801 10803 10806 10807 10809 10816 10820 10819 10824 10823 10831 10830 10836 10839 10839 10842 10846 10843 10846 10850 10851 10852 10854 10857 10860 10864 10865 10866 10867 10869 10869 10869 10869 10870 10870 10868 10866 10864 10863
10773 10775 10778 10781 10781 10784 10788 10790 10792 10793 10796 10800 10803 10806 10809 10811 10817 10819 10821 10826 10828 10832 10836 10833 10838 10840 10841 10843 10844 10847 10853 10856 10857 10859 10859 10860 10860 10859 10862 10863 10863 10862 10861 10859 10858
10762 10762 10766 10769 10767 10770 10774 10777 10776 10777 10779 10782 10784 10789 10794 10796 10802 10806 10806 10810 10814 10820 10822 10822 10828 10829 10831 10835 10836 10839 10845 10848 10850 10852 10853 10855 10854 10851 10855 10855 10855 10856 10854 10853 10851
10751 10751 10754 10755 10756 10758 10761 10764 10763 10761 10764 10765 10768 10770 10775 10779 10783 10786 10791 10793 10798 10803 10807 10813 10815 10817 10823 10825 10827 10829 10835 10840 10843 10844 10844 10849 10849 10844 10844 10846 10846 10847 10846 10845 10845
10740 10741 10742 10744 10745 10747 10749 10751 10749 10750 10751 10752 10755 10756 10757 10760 10763 10767 10771 10774 10780 10787 10792 10800 10799 10805 10811 10813 10817 10820 10825 10829 10831 10833 10836 10840 10841 10837 10837 10836 10836 10837 10837 10836 10835
10730 10730 10730 10732 10734 10736 10738 10739 10737 10739 10739 10742 10743 10743 10744 10744 10746 10748 10752 10757 10763 10770 10775 10781 10782 10791 10796 10798 10805 10808 10811 10816 10821 10823 10826 10829 10830 10827 10826 10829 10825 10826 10828 10827 10826
10719 10720 10719 10721 10722 10724 10727 10727 10726 10727 10728 10731 10733 10732 10731 10731 10732 10733 10735 10739 10745 10750 10758 10764 10767 10772 10780 10786 10789 10792 10797 10803 10807 10811 10815 10818 10818 10814 10815 10818 10818 10818 10819 10819 10817
10707 10710 10710 10710 10712 10714 10715 10715 10716 10716 10717 10719 10721 10722 10721 10720 10720 10720 10723 10727 10729 10735 10741 10747 10754 10752 10763 10767 10768 10777 10785 10791 10796 10802 10804 10806 10807 10800 10801 10803 10805 10806 10808 10808 10808
10695 10697 10699 10699 10701 10703 10704 10704 10705 10706 10704 10708 10710 10712 10712 10711 10709 10708 10712 10714 10715 10718 10723 10731 10738 10736 10744 10747 10752 10761 10770 10776 10782 10789 10794 10798 10800 10787 10785 10791 10794 10795 10798 10798 10798
10682 10685 10686 10687 10690 10690 10692 10692 10695 10695 10693 10697 10697 10700 10702 10701 10700 10700 10702 10703 10704 10706 10709 10714 10723 10724 10724 10728 10738 10746 10754 10760 10766 10774 10782 10787 10790 10772 10775 10780 10783 10785 10787 10787 10787
10669 10671 10671 10673 10676 10676 10679 10681 10682 10682 10682 10686 10686 10687 10689 10689 10689 10693 10690 10692 10692 10694 10697 10699 10704 10709 10711 10710 10721 10729 10735 10742 10750 10759 10764 10775 10772 10767 10763 10767 10770 10774 10775 10774 10777
10652 10655 10655 10659 10659 10660 10663 10667 10665 10667 10669 10671 10674 10673 10674 10675 10676 10679 10679 10678 10681 10684 10685 10686 10690 10694 10697 10698 10703 10714 10722 10726 10735 10739 10752 10752 10761 10752 10752 10751 10754 10760 10760 10762 10766
10634 10637 10639 10642 10642 10643 10646 10649 10649 10650 10653 10656 10657 10659 10660 10660 10661 10663 10666 10666 10666 10671 10673 10676 10677 10681 10684 10686 10688 10698 10707 10710 10715 10718 10733 10738 10746 10735 10736 10737 10739 10743 10748 10750 10751
10614 10617 10620 10624 10624 10623 10626 10630 10631 10632 10637 10638 10640 10642 10644 10644 10646 10647 10651 10653 10654 10653 10656 10662 10664 10666 10671 10671 10675 10688 10688 10688 10694 10703 10716 10727 10728 10721 10724 10723 10724 10730 10734 10736 10738